sat.trackr.live / text

‹ back to catalog

2025-313AK

NORAD 67281 · 2025-313AK

PAYLOAD ACTIVE UNKNOWN

§ Identity

Operator
Country
TBD
Launch date
2025-12-28
Launch site
VOSTO
Launch vehicle
Mass (kg)
RCS (m²)

External: N2YO · Heavens-Above · Gunter

§ Orbital elements

Epoch: 2026-09-20T00:18:06.600096Z

Period
94.53 min
Inclination
97.3799°
Eccentricity
0.0012452
Mean motion
15.23301948 rev/d
Perigee alt
487.3 km
Apogee alt
504.4 km
Semi-major
6,874.0 km
B*
1.3998e-4
RAAN
335.9531°
Arg perigee
34.6079°
Mean anomaly
325.5966°
Rev number
4,038

§ Raw data

2025-313AK1 67281U 25313AK  26263.01257639  .00003257  00000+0  13998-3 0  99992 67281  97.3799 335.9531 0012452  34.6079 325.5966 15.23301948 40389

JSON: /api/v1/satellites/67281 · /tle

For live sub-satellite position, see the globe view (requires WebGL).

§ Visibility from observer

Set your observer location to see the next 7 days of passes ≥ 10°. The values pass through the URL so the page stays shareable.

No JS? Fill the form by hand. The geolocation button needs JavaScript.